Weather History for San Diego, CA

Change the Weather History Date:

Monday, May 27, 2013

  Actual Average Record
Temperature  
Mean Temperature 68 °F 64 °F  
Max Temperature 74 °F 69 °F 84 °F (1915)
Min Temperature 61 °F 60 °F 50 °F (1917)
Degree Days  
Heating Degree Days 0 1  
Month to date heating degree days 14 53  
Since 1 July heating degree days 1088 1202  
Cooling Degree Days 3 1  
Month to date cooling degree days 40 27  
Year to date cooling degree days 47 51  
Growing Degree Days 17 (Base 50)    
Moisture  
Dew Point 53 °F    
Average Humidity 65    
Maximum Humidity 72    
Minimum Humidity 57    
Precipitation  
Precipitation 0.00 in 0.00 in 0.10 in (1962)
Month to date precipitation 0.26 0.11  
Year to date precipitation 3.33 6.95  
Since 1 July precipitation 6.50 10.26  
Snow  
Snow 0.00 in - - ()
Month to date snowfall 0.0  
Year to date snowfall 0.0  
Since 1 July snowfall 0.0  
Snow Depth 0.00 in    
Sea Level Pressure  
Sea Level Pressure 29.97 in    
Wind  
Wind Speed 6 mph (SSW)    
Max Wind Speed 14 mph    
Max Gust Speed 21 mph    
Visibility 10 miles    
Events      
T = Trace of Precipitation, MM = Missing Value Source: NWS Daily Summary

Daily Weather History Graph

Daily Weather History Graph

Search for Another Location

Airport:

Trip Planner

Search our weather history database for the weather conditions in past years. The results will help you decide how hot, cold, wet, or windy it might be!

Date:

Astronomy

May. 27, 2013 Rise Set
Actual Time 5:43 AM PDT 7:48 PM PDT
Civil Twilight 5:15 AM PDT 8:16 PM PDT
Nautical Twilight 4:41 AM PDT 8:50 PM PDT
Astronomical Twilight 4:04 AM PDT 9:27 PM PDT
Moon 10:35 PM PDT (5/27) 8:23 AM PDT (5/27)
Length of Visible Light 15h 01m
Length of Day
14h 05m
Waning Gibbous, 90% of the Moon is Illuminated
May 27
Waning Gibbous
May 31
Last Quarter
Jun 8
New
Jun 16
First Quarter
Jun 23
Full

Hourly Weather History & Observations

Time (PDT) Temp. Dew Point Humidity Pressure Visibility Wind Dir Wind Speed Gust Speed Precip Events Conditions
12:51 AM 61.0 °F 52.0 °F 72% 30.03 in 10.0 mi SSW 4.6 mph - N/A   Mostly Cloudy
1:51 AM 61.0 °F 52.0 °F 72% 30.02 in 10.0 mi SSE 5.8 mph - N/A   Mostly Cloudy
1:59 AM 60.8 °F 51.8 °F 72% 30.02 in 10.0 mi SSE 6.9 mph - N/A   Scattered Clouds
2:28 AM 60.8 °F 51.8 °F 72% 30.02 in 10.0 mi SE 3.5 mph - N/A   Overcast
2:51 AM 61.0 °F 52.0 °F 72% 30.01 in 10.0 mi Calm Calm - N/A   Overcast
3:51 AM 62.1 °F 52.0 °F 70% 29.99 in 10.0 mi NE 3.5 mph - N/A   Overcast
4:51 AM 61.0 °F 51.1 °F 70% 29.97 in 10.0 mi ESE 5.8 mph - N/A   Overcast
5:51 AM 61.0 °F 51.1 °F 70% 29.96 in 10.0 mi ENE 4.6 mph - N/A   Mostly Cloudy
6:51 AM 61.0 °F 51.1 °F 70% 29.98 in 10.0 mi NE 3.5 mph - N/A   Mostly Cloudy
7:51 AM 62.1 °F 51.1 °F 67% 30.00 in 10.0 mi West 4.6 mph - N/A   Mostly Cloudy
8:51 AM 64.0 °F 52.0 °F 65% 30.00 in 10.0 mi Variable 4.6 mph - N/A   Mostly Cloudy
9:44 AM 64.4 °F 51.8 °F 64% 29.99 in 10.0 mi WSW 4.6 mph - N/A   Scattered Clouds
9:51 AM 66.0 °F 52.0 °F 60% 29.99 in 10.0 mi SW 5.8 mph - N/A   Scattered Clouds
10:51 AM 66.9 °F 53.1 °F 61% 29.98 in 10.0 mi Calm Calm - N/A   Partly Cloudy
11:51 AM 69.1 °F 54.0 °F 58% 29.97 in 10.0 mi West 9.2 mph - N/A   Partly Cloudy
12:51 PM 68.0 °F 54.0 °F 61% 29.98 in 10.0 mi West 10.4 mph 16.1 mph N/A   Partly Cloudy
1:51 PM 68.0 °F 53.1 °F 59% 29.96 in 10.0 mi West 8.1 mph - N/A   Partly Cloudy
2:51 PM 68.0 °F 54.0 °F 61% 29.95 in 10.0 mi SW 11.5 mph - N/A   Partly Cloudy
3:51 PM 66.0 °F 54.0 °F 65% 29.94 in 10.0 mi SW 12.7 mph - N/A   Scattered Clouds
4:18 PM 66.2 °F 53.6 °F 64% 29.94 in 10.0 mi SW 10.4 mph - N/A   Mostly Cloudy
4:51 PM 66.0 °F 54.0 °F 65% 29.94 in 10.0 mi WSW 11.5 mph - N/A   Mostly Cloudy
5:51 PM 64.9 °F 54.0 °F 68% 29.93 in 10.0 mi WNW 4.6 mph - N/A   Mostly Cloudy
6:51 PM 64.9 °F 55.0 °F 70% 29.93 in 10.0 mi WSW 8.1 mph - N/A   Mostly Cloudy
7:51 PM 63.0 °F 54.0 °F 72% 29.92 in 10.0 mi SSW 5.8 mph - N/A   Mostly Cloudy
8:31 PM 62.6 °F 53.6 °F 72% 29.92 in 10.0 mi South 6.9 mph - N/A   Scattered Clouds
8:51 PM 63.0 °F 54.0 °F 72% 29.92 in 10.0 mi SSW 6.9 mph - N/A   Scattered Clouds
9:26 PM 62.6 °F 55.4 °F 77% 29.92 in 10.0 mi South 5.8 mph - N/A   Mostly Cloudy
9:51 PM 62.1 °F 55.0 °F 78% 29.94 in 10.0 mi SSW 8.1 mph - N/A   Mostly Cloudy
10:51 PM 62.1 °F 54.0 °F 75% 29.94 in 10.0 mi SSW 6.9 mph - N/A   Mostly Cloudy
11:51 PM 62.1 °F 54.0 °F 75% 29.92 in 10.0 mi South 4.6 mph - N/A   Overcast